Main page
METAR-TAF:

METAR-TAF

Airports :

Tabas Airport

Tabas, Iran

latitude: 33-36N, longitude: 056-55E, elevation: 710 m

Current weather observation

The report was made 40 minutes ago, at 21:00 UTC
Wind 6 kt from the North
Temperature 18°C
Humidity 32%
Pressure 1019 hPa

METAR: OIMT 172100Z AUTO 35006KT //// // ////// 18/01 Q1019

Time: 01:10 (21:40 UTC)


TAF: missing

Weather observations and forecasts of more than 4000 airports (METAR and TAF reports).

The available stations are represented by yellow and red dots on the map.

Hover mouse over dot to see the name of the station.

Then click to see weather observations and forecasts.

To change the map : click on the green buttons with a black cross to zoom in, on the green button with a dash to zoom out, or on the green arrows for adjacent maps.


METAR-TAF: